Showing default

NUSAT-50 (NANCY ROMAN), 60493

Orbit data source: Space-Track

NUSAT-50 (NANCY ROMAN), 60493 is a payload satellite owned by URUGUS S.A. (AR) in SSO that was launched on Fri, 16 Aug 2024 UTC via an FALCON 9 launch vehicle from the Air Force Western Test Range (AFWTR). Payload-class satellites include a variety of spacecraft equipped with specific instruments for various scientific and technological missions. These include communications satellites like Starlink; space stations such as the ISS; scientific satellites like the Hubble; Earth observation satellites from companies like Planet Labs, Umbra, and HawkEye 360; GPS; miniature CubeSats for education and research; and military/defense satellites.

Loading next visibility...
Identifier
60493, 2024-149AB
Orbit
SSO
Country
Flag of ARAR / ARGN
Related business
Manufacturer
URUGUS S.A.
Mission
Operational Commercial Imaging
Bus & Motor
NEWSAT V, Unknown motor
Mass
41.5 kg wet, 38.5 kg dry
Launch date (UTC)
2024-08-16 (2 years ago)
Launch vehicle
FALCON 9
Launch site
Air Force Western Test Range (AFWTR)
Object type
Payload
Rocket body
Debris
Shape & HBR
Box, 1.0 m
Radar Cross Section
0.542 m², Medium (>0.1 m² and < 1m²)

Expand to show TLE details & history
Last TLE update: 6 days ago

TLE from 6 days ago
0 NUSAT-50 (NANCY ROMAN)
1 60493U 24149AB  26155.02046943  .00010236  00000-0  35913-3 0  9995
2 60493  97.3786 236.3708 0002223 223.4232 136.6833 15.29616652100116
Epoch: 2026-06-04T00:29Z
TLE epoch observation values (Epoch: 2026-06-04T00:29:28.558Z)
Latitude
-0.0001°
Longitude
-23.46891°
Altitude
481.171 km
Speed
7.624 km/s
True Right ascension
15h 45m 28s
True Declination
0° 00' 00"
Sunlit
Object was in full shadow at epoch
Visualization orbit readout
Latitude
Unknown
Longitude
Unknown
Altitude
Unknown
Speed
Unknown
Apparent Right ascension
Unknown
Apparent Declination
Unknown
Sunlit
N/A
Visualization observer readout
Local Sidereal Time
13:50:26
Azimuth
Unknown
Elevation
Unknown
Doppler factor
Unknown
Orbital elements
Apogee altitude
475.432 km
Perigee altitude
472.386 km
Semi-major axis
6,852.046 km
Eccentricity
0.00022
Inclination
97.3786°
RAAN
236.3708°
Arg. of periapsis
223.4232°
True anomaly
136.70077°
Mean anomaly
136.6833°
Eccentric anomaly
136.69204°
Mean motion
3.8266 °/min
Orbital period
94.08 mins
BSTAR
0.00035913
Loading maneuver chart data...
Computing Atmospheric mass density...
Loading historical data...
Loading historical data...
Loading historical data...
Loading historical data...
Loading historical data...
Loading historical data...
Loading historical data...

Documentation

Showing up to 5 results
|